09:36
Airports
History
Links
Donate
Help keep this website running!
PayPal
Bitcoin
This page is community maintained. The information is intended for PC simulator navigation or reference.
Always use approved charts for navigation.
VT05
North Windham
North Windham (VT05)
Windham, Vermont, United States (5359)
4
Lat/Lng:43° 13' 17.27" N / 72° 42' 46.34" W
43.221464 / -72.712873
Elevation:1750'ft / 533mMSL
ID / ICAO:VT05
Runways:1
Longest:09-27
Grass 692m / 2,270ft
Nearby Weather08:54 GMT 2017-10-24
Nearby weather at KVSF, Hartness State (springfield) located 13.0 nautical miles from VT05
Altimeter: 29.95
Visibility: 10.0 statute miles
Wind: 0 knots (from 000°)
Temp: 17°c / 63°f
Humidity: 93.8%

METAR: KVSF 240854Z AUTO 00000KT 10SM BKN026 BKN032 OVC039 17/16 A2995 RMK AO2 SLP143 60000 T01720161 58028 $

(Powered by phpweather)
Nearby VORs <50NM
Nearby NDBs
Runway 09 / 27
Dimensions:692 x 21.3m 2270' x 70'ft
Surface:Grass
Runway 09 [A]Runway 27 [B]
Heading:074°TH 254°TH
Lat:
Lng:
43° 13' 14.37"N
72° 43' 1.2"W
43° 13' 20.17"N
72° 42' 31.49"W
User Notes and Comments
43° 13' 17.27" N / 72° 42' 46.34" W
Distance To
Airport ID:
Nearby Airports
(R) Holloway 5.4 NM
VT13 N 357°
4 Red Fox 10.1 NM
VT02 WSW 239°
(R) Smith 10.4 NM
VT17 N 10°
(U) Hartness State (springfield) 13.0 NM
KVSF ( WX ) NE 49°
(R) Onyon 14.3 NM
VT43 SSE 167°
(R) Major W. Guth 15.8 NM
VT34 SE 135°
4 Santas 19.2 NM
VT06 SE 141°
VFR Chart
Flight Planning at SkyVector.com